sat.trackr.live / text

‹ back to catalog

STARLINK-2681

NORAD 48465 · 2021-040AP

PAYLOAD ACTIVE UNKNOWN

§ Identity

Operator
Country
US
Launch date
2021-05-09
Launch site
AFETR
Launch vehicle
Mass (kg)
RCS (m²)

Purposes: comms

External: N2YO · Heavens-Above · Gunter

§ Orbital elements

Epoch: 2026-09-18T04:24:12.606336Z

Period
87.35 min
Inclination
53.1138°
Eccentricity
0.0005066
Mean motion
16.48557986 rev/d
Perigee alt
139.8 km
Apogee alt
146.4 km
Semi-major
6,521.3 km
B*
2.2774e-4
RAAN
324.9303°
Arg perigee
303.5045°
Mean anomaly
56.5522°
Rev number
29,669

§ Raw data

STARLINK-26811 48465U 21040AP  26261.18347924  .15732230  12641-4  22774-3 0  99952 48465  53.1138 324.9303 0005066 303.5045  56.5522 16.48557986296697

JSON: /api/v1/satellites/48465 · /tle

For live sub-satellite position, see the globe view (requires WebGL).

§ Visibility from observer

Set your observer location to see the next 7 days of passes ≥ 10°. The values pass through the URL so the page stays shareable.

No JS? Fill the form by hand. The geolocation button needs JavaScript.